Preview of NWS' New Version of Forecast
This preview is not operational and should not be used for support decisions.

Regional Weather Roundup (RWR)

Issued by National Weather Service (NWS)

                            
000
ASUS44 KMEG 172010
RWRTN 
TENNESSEE HOURLY STATE WEATHER ROUNDUP
NATIONAL WEATHER SERVICE MEMPHIS TN
300 PM CDT WED APR 17 2019

TNZ002-004-019-021-049-052-054-088>092-172100-
WEST TENNESSEE
  
CITY           SKY/WX    TMP DP  RH WIND       PRES   REMARKS
MEMPHIS INTL   CLOUDY    73  62  68 SW14      29.93F                  
NWS MEMPHIS      N/A     75 N/A N/A MISG        N/A                   
JACKSON        FAIR      74  57  55 S14G22    29.95F                  
DYERSBURG      FAIR      74  60  61 S9G21     29.91F                  
SOMERVILLE     SUNNY     73  59  60 SE10G17   29.94F                  
COVINGTON      MOSUNNY   75  61  60 S12       29.91F                  
UNION CITY       N/A     75  61  60 S17G24    29.89F                  
BOLIVAR        SUNNY     73  57  56 S12G18    29.96F                  
PARIS          MOSUNNY   75  57  53 S15       29.91F                  
HUNTINGDON     MOSUNNY   77  57  50 S13       29.92F                  
LEXINGTON      MOSUNNY   77  46  33 SW18G29   29.95F                  
SELMER         PTSUNNY   73  52  46 S8G17     29.97F                  
SAVANNAH       MOSUNNY   77  48  36 S12G18    29.97S                  
$$

TNZ008-025-027-028-033-062-065-066-172100-
NORTH MIDDLE TENNESSEE
  
CITY           SKY/WX    TMP DP  RH WIND       PRES   REMARKS
NASHVILLE      PTSUNNY   77  45  32 S16G23    29.97F                  
DICKSON        CLEAR     79  43  27 SW20G29   29.93F                  
CLARKSVILLE    FAIR      79  48  33 S10       29.91F                  
LEBANON        CLEAR     79  48  34 S18       29.95F                  
SMYRNA         FAIR      77  51  40 S9G17     29.99F                  
COOKEVILLE     SUNNY     79  45  29 SW9G16    30.00F                  
LIVINGSTON     CLEAR     77  41  27 SW12G18   29.99F                  
GALLATIN       CLEAR     79  48  34 VRB7G17   29.99F                  
CROSSVILLE     FAIR      75  41  29 S12G17    30.04F                  
ROCKWOOD       CLEAR     73  45  35 S10G17    30.05F                  
$$

TNZ061-075-076-078-094-096-097-172100-
SOUTH MIDDLE TENNESSEE
  
CITY           SKY/WX    TMP DP  RH WIND       PRES   REMARKS
LAWRENCEBURG   CLEAR     77  48  36 S8G18     30.00F                  
LEWISBURG      CLEAR     75  50  41 S15       29.99F                  
FAYETTEVILLE   SUNNY     75  46  35 S13       30.01F                  
TULLAHOMA      SUNNY     75  48  38 S8G16     30.00F                  
WINCHESTER     SUNNY     79  48  34 S9G17     30.01F                  
MCMINNVILLE    SUNNY     77  48  36 SW10G18   30.00F                  
COLUMBIA       MOSUNNY   73  48  40 S15       29.96F                  
SHELBYVILLE    SUNNY     77  48  36 SW15G22   30.00F                  
$$

TNZ017-018-042-046-047-172100-
NORTHEAST TENNESSEE
  
CITY           SKY/WX    TMP DP  RH WIND       PRES   REMARKS
TRI CITIES     CLOUDY    74  42  31 SW10      30.06F                  
ELIZABETHTON   FAIR      75  45  33 VRB6      30.05F                  
GREENEVILLE    CLEAR     75  43  31 VRB5G12   30.05F                  
$$

TNZ012-013-036-069-073-074-172100-
CENTRAL EAST TENNESSEE
  
CITY           SKY/WX    TMP DP  RH WIND       PRES   REMARKS
KNOXVILLE      CLOUDY    76  43  30 W9        30.02F                  
OAK RIDGE      FAIR      79  46  31 VRB6      30.04F                  
DOWNTOWN KNOXV SUNNY     77  46  33 SW6       30.03F                  
GATLINBURG     SUNNY     77  46  33 CALM      30.02F                  
MORRISTOWN     SUNNY     77  45  31 W8        30.03F                  
JACKSBORO      SUNNY     77  46  33 S12G20    30.05F                  
$$

TNZ083-085-099-172100-
SOUTHEAST TENNESSEE
  
CITY           SKY/WX    TMP DP  RH WIND       PRES   REMARKS
CHATTANOOGA    PTSUNNY   80  45  28 SE9       30.03F                  
DAYTON         CLEAR     79  50  36 S9        30.02F                  
$$

SKY/WX REPORTED AS FAIR MEANS FEW OR NO CLOUDS BELOW
12 THOUSAND FEET.